Weather observations for the past three days for
Corpus Christi, Corpus Christi Naval Air Station/Truax Field
Imperial (Metric)
Date Time (cdt) Wind (mph) Vis. (mi.) Weather Sky Cond. Temperature (ºF) Relative Humidity Wind Chill (°F) Heat Index (°F) Pressure Precipitation (in)
Air Dwpt 6 hour altimeter (in) sea level (mb) 1 hr 3 hr 6 hr
Max. Min.
15 20:56 SE 17 10.00 A Few Clouds FEW025 0 0 0% 29.82 1009.9
15 19:56 E 18 G 24 10.00 Fair CLR 0 0 0% 29.81 1009.6
15 18:56 SE 20 10.00 Fair CLR 0 0 0% 29.81 1009.6
15 17:56 SE 20 G 31 10.00 A Few Clouds FEW026 0 0 0% 29.81 1009.6
15 16:56 SE 17 10.00 Fair CLR 0 0 0% 29.83 1010.2
15 15:56 SE 18 10.00 Fair CLR 0 0 0% 29.84 1010.6
15 14:56 E 17 10.00 Fair CLR 0 0 0% 29.86 1011.3
15 13:56 SE 16 G 23 10.00 Fair CLR 0 0 0% 29.87 1011.6
15 12:56 E 12 10.00 Fair CLR 0 0 0% 29.9 1012.6
15 11:56 SE 13 G 18 10.00 Fair CLR 0 0 0% 29.9 1012.6
15 10:56 SE 9 10.00 Fair CLR 0 0 0% 29.9 1012.6
15 09:56 SE 9 10.00 Fair CLR 0 0 0% 29.9 1012.6
15 08:56 SE 9 10.00 Fair CLR 0 0 0% 29.9 1012.6
15 07:56 Calm 9.00 Light Rain BKN024 BKN031 OVC060 0 0 0% 29.89 1012.3
15 06:56 SE 8 10.00 Fair CLR 0 0 0% 29.88 1011.9
15 05:56 SE 9 10.00 Fair CLR 0 0 0% 29.87 1011.6
15 04:56 SE 9 10.00 Fair CLR 0 0 0% 29.86 1011.3
15 03:56 SE 9 10.00 A Few Clouds FEW024 0 0 0% 29.87 1011.6
15 02:56 SE 10 10.00 Fair CLR 0 0 0% 29.88 1011.9
15 01:56 SE 12 10.00 Fair CLR 0 0 0% 29.89 1012.3
15 00:56 SE 10 10.00 Partly Cloudy SCT026 0 0 0% 29.9 1012.6
14 23:56 SE 15 10.00 A Few Clouds FEW024 0 0 0% 29.9 1012.6
14 22:56 SE 17 10.00 Fair CLR 0 0 0% 29.89 1012.3
14 21:56 E 15 10.00 Fair CLR 0 0 0% 29.87 1011.6
14 20:56 E 16 10.00 A Few Clouds FEW025 0 0 0% 29.86 1011.3
14 19:56 E 20 G 24 10.00 Fair CLR 0 0 0% 29.86 1011.3
14 18:56 E 18 10.00 Partly Cloudy FEW020 SCT035 89.1 72 57% 96 29.85 1010.7
14 17:56 E 18 10.00 A Few Clouds FEW025 90 71.1 54% 96 29.85 1010.6
14 16:56 E 17 10.00 A Few Clouds FEW025 90 72 56% 97 29.85 1010.8
14 15:56 E 15 G 25 10.00 A Few Clouds FEW020 FEW031 91 73 56% 100 29.86 1011.2
14 14:56 E 16 10.00 A Few Clouds FEW034 93 73 52% 102 29.88 1011.9
14 13:56 E 13 G 21 10.00 A Few Clouds FEW034 93 73 52% 102 29.9 1012.5
14 12:56 E 10 G 17 10.00 A Few Clouds FEW034 91 73 91 84 56% 100 29.91 1012.7
14 11:56 SE 8 10.00 Partly Cloudy FEW028 SCT050 SCT080 90 75 62% 100 29.91 1012.8
14 10:56 E 6 10.00 Mostly Cloudy FEW027 SCT050 BKN075 89.1 75.9 65% 100 29.92 1013.2
14 09:56 S 5 10.00 Mostly Cloudy FEW025 BKN050TCU BKN070 88 75 66% 98 29.93 1013.5
14 08:56 S 3 10.00 Mostly Cloudy FEW025 BKN040TCU BKN080 87.1 75 67% 97 29.93 1013.3
14 07:56 SE 5 10.00 Partly Cloudy FEW025 SCT050 SCT085 84.9 75 72% 93 29.91 1012.7
14 06:56 S 5 10.00 Mostly Cloudy FEW025 SCT050 BKN085 84 73.9 72% 91 29.89 1012.2
14 05:56 SE 3 10.00 Partly Cloudy FEW020 SCT030 84 73.9 72% 91 29.89 1012.0
14 04:56 SE 6 10.00 A Few Clouds FEW029 0 0 0% 29.88 1011.9
14 03:56 SE 8 10.00 A Few Clouds FEW023 0 0 0% 29.88 1011.9
14 02:56 SE 9 10.00 Fair CLR 0 0 0% 29.88 1011.9
14 01:56 SE 10 10.00 Fair CLR 0 0 0% 29.88 1011.9
14 00:56 SE 13 10.00 Fair CLR 0 0 0% 29.89 1012.3
13 23:56 SE 14 10.00 Fair CLR 0 0 0% 29.88 0.0
13 22:56 E 15 10.00 A Few Clouds FEW025 86 73 65% 93 29.88 1011.9
13 21:56 SE 13 10.00 A Few Clouds FEW025 86 73 65% 93 29.87 1011.5
13 20:56 E 13 10.00 A Few Clouds FEW028 87.1 73.9 65% 95 29.87 1011.3
13 19:56 E 16 10.00 A Few Clouds FEW020 88 73.9 63% 97 29.86 1010.9
13 18:56 E 15 10.00 A Few Clouds FEW022 FEW120 89.1 75 91.9 89.1 63% 99 29.85 1010.6
13 17:56 E 16 10.00 A Few Clouds FEW025 FEW120 89.1 73 59% 97 29.85 1010.7
13 16:56 E 12 10.00 Partly Cloudy FEW026 FEW120 SCT250 90 73 58% 98 29.85 1010.8
13 15:56 SE 13 10.00 A Few Clouds FEW032 FEW130 91 73.9 57% 101 29.87 1011.4
13 14:56 SE 12 10.00 Partly Cloudy FEW035 FEW130 SCT250 91.9 73.9 56% 102 29.88 1011.9
13 13:56 SE 10 10.00 Partly Cloudy FEW035 FEW080 SCT150 SCT250 91 75 59% 102 29.9 1012.4
13 12:56 SE 9 10.00 Partly Cloudy FEW034 FEW080 SCT150 89.1 75 63% 99 29.91 1012.7
13 11:56 S 3 10.00 Mostly Cloudy SCT030 BKN045 BKN150 89.1 75 63% 99 29.92 1013.0
13 10:56 SW 3 10.00 Mostly Cloudy SCT025 BKN045 BKN150 90 75 62% 100 29.91 1012.9
13 09:56 SW 7 10.00 Partly Cloudy SCT025 SCT090 89.1 75 63% 99 29.91 1012.9
13 08:56 S 6 10.00 Mostly Cloudy FEW020 SCT050 BKN100 86 77 75% 97 29.91 1012.8
13 07:56 S 7 10.00 Partly Cloudy FEW030 FEW050 SCT100 84.9 78.1 80% 97 29.89 1012.2
13 06:56 S 3 10.00 A Few Clouds FEW025 FEW100 84 77 80% 94 29.87 1011.3
13 05:56 S 6 10.00 Partly Cloudy FEW025 SCT040 SCT100 84 77 80% 94 29.86 1010.9
13 04:56 S 5 10.00 Mostly Cloudy BKN026 BKN038 0 0 0% 29.85 1010.9
13 03:56 SE 7 10.00 A Few Clouds FEW024 0 0 0% 29.85 1010.9
13 02:56 SE 10 10.00 A Few Clouds FEW026 0 0 0% 29.85 1010.9
13 01:56 SE 9 10.00 Mostly Cloudy BKN100 0 0 0% 29.87 1011.6
12 23:56 SE 9 10.00 Partly Cloudy SCT023 0 0 0% 29.88 1011.9
12 22:56 SE 12 10.00 A Few Clouds FEW100 FEW250 84 77 80% 94 29.88 1011.8
12 21:56 E 12 10.00 A Few Clouds FEW100 FEW250 84.9 77 77% 95 29.87 1011.4
Date Time (cdt) Wind (mph) Vis. (mi.) Weather Sky Cond. Air Dwpt Max. Min. Relative Humidity Wind Chill (°F) Heat Index (°F) altimeter (in) sea level (mb) 1 hr 3 hr 6 hr
6 hour
Temperature (ºF) Pressure Precipitation (in)